When you browse on this site, cookies collect data to enhance your experience and personalize the content and advertising you see.
Visit our Privacy Policy to learn more. By continuing to use the site, you agree to this use of cookies and data.
  • In Slovakia
  • List of Countries
  • For 7 days
  • Water Temperature
  • Weather Map
  • Weather Widgets
  • user-avatar
    Login

    Hourly Weather Konstantyna

    Today, 19 November, Tuesday

    Time Temperature Precipitation Wind Pressure Humidity
    00:00 +8°C° 0 mm 2 mps 706 mmHg 71%
    01:00 +8°C° 0.1 mm 2 mps 706 mmHg 74%
    02:00 +8°C° 0.1 mm 2 mps 706 mmHg 77%
    03:00 +7°C° 0.1 mm 2 mps 706 mmHg 79%
    04:00 +7°C° 0.5 mm 2 mps 706 mmHg 82%
    05:00 +7°C° 0.5 mm 2 mps 706 mmHg 85%
    06:00 +7°C° 0.5 mm 2 mps 707 mmHg 87%
    07:00 +8°C° 0.3 mm 2 mps 707 mmHg 85%
    08:00 +8°C° 0.3 mm 3 mps 708 mmHg 82%
    09:00 +9°C° 0.3 mm 3 mps 708 mmHg 80%
    10:00 +9°C° 0.1 mm 3 mps 708 mmHg 77%
    11:00 +10°C° 0.1 mm 3 mps 708 mmHg 75%
    12:00 +10°C° 0.1 mm 3 mps 708 mmHg 72%
    13:00 +10°C° 0.1 mm 3 mps 709 mmHg 71%
    14:00 +10°C° 0.1 mm 3 mps 709 mmHg 71%
    15:00 +10°C° 0.1 mm 3 mps 709 mmHg 70%
    16:00 +9°C° 0 mm 2 mps 709 mmHg 75%
    17:00 +9°C° 0 mm 1 mps 709 mmHg 80%
    18:00 +8°C° 0 mm 1 mps 709 mmHg 85%
    19:00 +8°C° 0 mm 1 mps 709 mmHg 86%
    20:00 +7°C° 0 mm 1 mps 709 mmHg 86%
    21:00 +7°C° 0 mm 1 mps 710 mmHg 87%
    22:00 +7°C° 0 mm 1 mps 709 mmHg 87%
    23:00 +7°C° 0 mm 1 mps 709 mmHg 87%

    Tomorrow, 20 November, Wednesday

    Time Temperature Precipitation Wind Pressure Humidity
    00:00 +7°C° 0 mm 1 mps 709 mmHg 87%
    01:00 +6°C° 0 mm 1 mps 709 mmHg 87%
    02:00 +6°C° 0 mm 1 mps 709 mmHg 87%
    03:00 +6°C° 0 mm 1 mps 708 mmHg 86%
    04:00 +6°C° 0 mm 1 mps 708 mmHg 86%
    05:00 +6°C° 0 mm 1 mps 708 mmHg 86%
    06:00 +6°C° 0 mm 1 mps 708 mmHg 86%
    07:00 +7°C° 0 mm 2 mps 709 mmHg 79%
    08:00 +8°C° 0 mm 2 mps 709 mmHg 72%
    09:00 +10°C° 0 mm 2 mps 710 mmHg 65%
    10:00 +11°C° 0 mm 3 mps 709 mmHg 59%
    11:00 +12°C° 0 mm 3 mps 709 mmHg 53%
    12:00 +13°C° 0 mm 4 mps 709 mmHg 47%
    13:00 +13°C° 0 mm 4 mps 708 mmHg 47%
    14:00 +13°C° 0 mm 4 mps 708 mmHg 46%
    15:00 +13°C° 0 mm 3 mps 708 mmHg 46%
    16:00 +12°C° 0 mm 3 mps 708 mmHg 50%
    17:00 +12°C° 0 mm 2 mps 708 mmHg 54%
    18:00 +10°C° 0 mm 2 mps 707 mmHg 58%
    19:00 +9°C° 0 mm 2 mps 707 mmHg 59%
    20:00 +9°C° 0 mm 2 mps 708 mmHg 60%
    21:00 +9°C° 0 mm 2 mps 708 mmHg 61%
    22:00 +9°C° 0 mm 2 mps 707 mmHg 62%
    23:00 +9°C° 0 mm 2 mps 707 mmHg 62%

    Day after tomorrow, 21 November, Thursday

    Time Temperature Precipitation Wind Pressure Humidity
    00:00 +8°C° 0 mm 2 mps 707 mmHg 62%
    01:00 +8°C° 0 mm 2 mps 707 mmHg 62%
    02:00 +9°C° 0 mm 2 mps 707 mmHg 61%
    03:00 +9°C° 0 mm 2 mps 707 mmHg 61%
    04:00 +8°C° 0 mm 2 mps 707 mmHg 61%
    05:00 +8°C° 0 mm 2 mps 707 mmHg 61%
    06:00 +8°C° 0 mm 2 mps 706 mmHg 61%
    07:00 +9°C° 0 mm 2 mps 707 mmHg 57%
    08:00 +12°C° 0 mm 2 mps 707 mmHg 53%
    09:00 +12°C° 0 mm 3 mps 708 mmHg 49%
    10:00 +13°C° 0 mm 3 mps 708 mmHg 47%
    11:00 +14°C° 0 mm 4 mps 708 mmHg 45%
    12:00 +15°C° 0 mm 5 mps 708 mmHg 43%
    13:00 +15°C° 0 mm 4 mps 707 mmHg 46%
    14:00 +15°C° 0 mm 4 mps 707 mmHg 48%
    15:00 +14°C° 0 mm 4 mps 707 mmHg 50%
    16:00 +13°C° 0 mm 4 mps 707 mmHg 55%
    17:00 +12°C° 0 mm 3 mps 707 mmHg 59%
    18:00 +10°C° 0 mm 2 mps 707 mmHg 64%
    19:00 +10°C° 0 mm 2 mps 708 mmHg 64%
    20:00 +10°C° 0 mm 2 mps 708 mmHg 65%
    21:00 +10°C° 0 mm 2 mps 708 mmHg 65%
    22:00 +10°C° 0 mm 2 mps 708 mmHg 66%
    23:00 +10°C° 0 mm 1 mps 708 mmHg 66%

    22 November, Friday

    Time Temperature Precipitation Wind Pressure Humidity
    00:00 +10°C° 0 mm 1 mps 708 mmHg 66%
    01:00 +10°C° 0 mm 1 mps 708 mmHg 67%
    02:00 +10°C° 0 mm 1 mps 707 mmHg 67%
    03:00 +10°C° 0 mm 1 mps 707 mmHg 68%
    04:00 +10°C° 0 mm 1 mps 707 mmHg 67%
    05:00 +9°C° 0 mm 2 mps 707 mmHg 67%
    06:00 +9°C° 0 mm 2 mps 707 mmHg 66%
    07:00 +10°C° 0 mm 2 mps 708 mmHg 62%
    08:00 +13°C° 0 mm 2 mps 708 mmHg 57%
    09:00 +14°C° 0 mm 2 mps 708 mmHg 53%
    10:00 +14°C° 0 mm 3 mps 708 mmHg 48%
    11:00 +17°C° 0 mm 4 mps 708 mmHg 44%
    12:00 +17°C° 0 mm 5 mps 708 mmHg 39%
    13:00 +17°C° 0 mm 5 mps 708 mmHg 40%
    14:00 +17°C° 0 mm 5 mps 707 mmHg 41%
    15:00 +18°C° 0 mm 4 mps 707 mmHg 42%
    16:00 +15°C° 0 mm 4 mps 707 mmHg 44%
    17:00 +13°C° 0 mm 3 mps 707 mmHg 46%
    18:00 +12°C° 0 mm 3 mps 707 mmHg 48%
    19:00 +11°C° 0 mm 3 mps 707 mmHg 48%
    20:00 +11°C° 0 mm 3 mps 707 mmHg 49%
    21:00 +12°C° 0 mm 2 mps 707 mmHg 49%
    22:00 +10°C° 0 mm 3 mps 706 mmHg 49%
    23:00 +10°C° 0 mm 3 mps 706 mmHg 49%

    23 November, Saturday

    Time Temperature Precipitation Wind Pressure Humidity
    00:00 +10°C° 0 mm 3 mps 706 mmHg 49%
    01:00 +10°C° 0 mm 3 mps 706 mmHg 48%
    02:00 +10°C° 0 mm 3 mps 706 mmHg 47%
    03:00 +10°C° 0 mm 3 mps 705 mmHg 47%
    04:00 +10°C° 0 mm 3 mps 705 mmHg 47%
    05:00 +10°C° 0 mm 3 mps 705 mmHg 47%
    06:00 +10°C° 0 mm 3 mps 705 mmHg 48%
    07:00 +11°C° 0 mm 3 mps 705 mmHg 49%
    08:00 +12°C° 0 mm 4 mps 705 mmHg 51%
    09:00 +12°C° 0 mm 5 mps 705 mmHg 53%
    10:00 +12°C° 0.2 mm 5 mps 705 mmHg 60%
    11:00 +12°C° 0.2 mm 5 mps 704 mmHg 67%
    12:00 +12°C° 0.2 mm 5 mps 704 mmHg 74%
    13:00 +13°C° 0 mm 5 mps 704 mmHg 71%
    14:00 +14°C° 0 mm 6 mps 703 mmHg 69%
    15:00 +15°C° 0 mm 7 mps 703 mmHg 67%
    16:00 +14°C° 0.2 mm 6 mps 703 mmHg 71%
    17:00 +13°C° 0.2 mm 5 mps 703 mmHg 76%
    18:00 +13°C° 0.2 mm 5 mps 703 mmHg 80%
    19:00 +12°C° 0.7 mm 4 mps 703 mmHg 81%
    20:00 +12°C° 0.7 mm 4 mps 703 mmHg 83%
    21:00 +11°C° 0.7 mm 4 mps 704 mmHg 84%
    22:00 +10°C° 0.5 mm 5 mps 704 mmHg 82%
    23:00 +9°C° 0.5 mm 6 mps 704 mmHg 80%

    24 November, Sunday

    Time Temperature Precipitation Wind Pressure Humidity
    00:00 +9°C° 0.5 mm 7 mps 704 mmHg 77%
    01:00 +8°C° 0.1 mm 7 mps 704 mmHg 79%
    02:00 +7°C° 0.1 mm 6 mps 704 mmHg 81%
    03:00 +7°C° 0.1 mm 6 mps 704 mmHg 83%
    04:00 +7°C° 0.3 mm 6 mps 704 mmHg 83%
    05:00 +7°C° 0.3 mm 5 mps 705 mmHg 84%
    06:00 +7°C° 0.3 mm 4 mps 705 mmHg 85%
    07:00 +8°C° 0.2 mm 6 mps 706 mmHg 82%
    08:00 +8°C° 0.2 mm 7 mps 707 mmHg 80%
    09:00 +8°C° 0.2 mm 9 mps 707 mmHg 78%
    10:00 +8°C° 0.2 mm 9 mps 708 mmHg 77%
    11:00 +10°C° 0.2 mm 9 mps 708 mmHg 75%
    12:00 +10°C° 0.2 mm 9 mps 708 mmHg 74%
    13:00 +10°C° 0.1 mm 9 mps 708 mmHg 75%
    14:00 +10°C° 0.1 mm 9 mps 708 mmHg 76%
    15:00 +9°C° 0.1 mm 8 mps 708 mmHg 77%
    16:00 +9°C° 0.1 mm 7 mps 708 mmHg 80%
    17:00 +8°C° 0.1 mm 6 mps 709 mmHg 84%
    18:00 +8°C° 0.1 mm 5 mps 709 mmHg 87%
    19:00 +7°C° 0 mm 4 mps 709 mmHg 89%
    20:00 +8°C° 0 mm 3 mps 710 mmHg 90%
    21:00 +8°C° 0 mm 2 mps 710 mmHg 92%
    22:00 +8°C° 0 mm 2 mps 710 mmHg 91%
    23:00 +8°C° 0 mm 2 mps 710 mmHg 90%
    Show more